Elkins, WV

6:55 AM EST on December 06, 2016 (GMT -0500)
Elkins-Randolph County

Weather History for KEKN - October, 2012

Change the Weather History Date:

Friday, October 19, 2012

  Actual Average Record
Temperature  
Mean Temperature 56 °F 50 °F  
Max Temperature 66 °F 63 °F 84 °F (1904)
Min Temperature 45 °F 37 °F 20 °F (1972)
Degree Days  
Heating Degree Days 9 15  
Month to date heating degree days 237 229  
Since 1 July heating degree days 401 389  
Cooling Degree Days 0 0  
Month to date cooling degree days 9 0  
Year to date cooling degree days 675 471  
Growing Degree Days 6 (Base 50)    
Moisture  
Dew Point 42 °F    
Average Humidity 63    
Maximum Humidity 100    
Minimum Humidity 26    
Precipitation  
Precipitation 0.21 in 0.08 in 1.47 in (1906)
Month to date precipitation 1.67 1.72  
Year to date precipitation 39.22 38.16  
Snow  
Snow 0.00 in - - ()
Month to date snowfall 0.0  
Since 1 September snowfall 0.0  
Snow Depth 0.00 in    
Sea Level Pressure  
Sea Level Pressure 29.78 in    
Wind  
Wind Speed 4 mph (SSW)    
Max Wind Speed 15 mph    
Max Gust Speed 20 mph    
Visibility 7 miles    
Events Fog , Rain    
T = Trace of Precipitation, MM = Missing Value Source: NWS Daily Summary

Daily Weather History Graph

Daily Weather History Graph

Search for Another Location

Airport or City:

Trip Planner

Search our weather history database for the weather conditions in past years. The results will help you decide how hot, cold, wet, or windy it might be!

Date:

Astronomy

Oct. 19, 2012 Rise Set
Actual Time 7:33 AM EDT 6:34 PM EDT
Civil Twilight 7:06 AM EDT 7:01 PM EDT
Nautical Twilight 6:35 AM EDT 7:32 PM EDT
Astronomical Twilight 6:04 AM EDT 8:03 PM EDT
Moon 12:12 PM EDT (10/19) 10:13 PM EDT (10/19)
Length of Visible Light 11h 55m
Length of Day
11h 01m
Waxing Crescent, 23% of the Moon is Illuminated
Oct 19
Waxing Crescent
Oct 21
First Quarter
Oct 29
Full
Nov 6
Last Quarter
Nov 13
New

Hourly Weather History & Observations

Time (EDT) Temp. Windchill Dew Point Humidity Pressure Visibility Wind Dir Wind Speed Gust Speed Precip Events Conditions
12:02 AM 46.4 °F - 46.4 °F 100% 29.84 in 10.0 mi Calm Calm - N/A   Scattered Clouds
12:14 AM 48.2 °F - 46.4 °F 93% 29.84 in 10.0 mi Calm Calm - N/A   Mostly Cloudy
12:51 AM 48.9 °F - 46.9 °F 93% 29.82 in 5.0 mi Calm Calm - 0.00 in Rain Light Rain
12:57 AM 48.2 °F - 46.4 °F 93% 29.83 in 1.8 mi ESE 3.5 mph - 0.00 in Rain Light Rain
1:08 AM 48.2 °F - 46.4 °F 93% 29.82 in 3.0 mi Calm Calm - 0.04 in Rain Light Rain
1:22 AM 48.2 °F - 46.4 °F 93% 29.83 in 1.8 mi SE 4.6 mph - 0.14 in Rain Heavy Rain
1:30 AM 48.2 °F - 46.4 °F 93% 29.83 in 3.0 mi Calm Calm - 0.21 in Rain Light Rain
1:38 AM 48.2 °F - 46.4 °F 93% 29.83 in 8.0 mi Calm Calm - 0.21 in Rain Light Rain
1:51 AM 48.0 °F - 46.9 °F 96% 29.84 in 8.0 mi Calm Calm - 0.21 in   Overcast
2:08 AM 48.2 °F - 46.4 °F 93% 29.82 in 9.0 mi Calm Calm - N/A   Overcast
2:20 AM 48.2 °F - 46.4 °F 93% 29.81 in 9.0 mi Calm Calm - N/A   Overcast
2:34 AM 48.2 °F - 46.4 °F 93% 29.82 in 10.0 mi Calm Calm - N/A   Overcast
2:51 AM 48.9 °F - 46.9 °F 93% 29.81 in 7.0 mi Calm Calm - N/A   Overcast
3:18 AM 48.2 °F - 46.4 °F 93% 29.81 in 8.0 mi Calm Calm - N/A   Overcast
3:40 AM 48.2 °F - 46.4 °F 93% 29.80 in 10.0 mi Calm Calm - N/A   Mostly Cloudy
3:51 AM 48.0 °F - 46.0 °F 93% 29.80 in 10.0 mi Calm Calm - N/A   Mostly Cloudy
4:51 AM 48.0 °F - 46.0 °F 93% 29.81 in 10.0 mi Calm Calm - 0.00 in   Overcast
5:23 AM 46.4 °F 45.2 °F 44.6 °F 93% 29.78 in 10.0 mi South 3.5 mph - N/A   Mostly Cloudy
5:51 AM 46.9 °F - 46.0 °F 97% 29.79 in 9.0 mi Calm Calm - N/A   Mostly Cloudy
6:01 AM 46.4 °F - 46.4 °F 100% 29.77 in 10.0 mi Calm Calm - N/A   Mostly Cloudy
6:51 AM 46.9 °F - 45.0 °F 93% 29.80 in 10.0 mi Calm Calm - N/A   Overcast
7:42 AM 46.4 °F 45.2 °F 44.6 °F 93% 29.78 in 1.8 mi WSW 3.5 mph - N/A   Overcast
7:51 AM 46.0 °F - 45.0 °F 96% 29.81 in 1.0 mi Calm Calm - N/A   Overcast
8:02 AM 46.4 °F - 44.6 °F 93% 29.78 in 0.5 mi Calm Calm - N/A Fog Fog
8:38 AM 46.4 °F - 44.6 °F 93% 29.79 in 1.0 mi Calm Calm - N/A   Overcast
8:51 AM 46.0 °F 43.9 °F 45.0 °F 96% 29.81 in 1.0 mi South 4.6 mph - N/A   Overcast
9:04 AM 46.4 °F 45.2 °F 44.6 °F 93% 29.79 in 2.5 mi South 3.5 mph - N/A   Overcast
9:13 AM 46.4 °F 45.2 °F 44.6 °F 93% 29.79 in 3.0 mi SW 3.5 mph - N/A   Overcast
9:16 AM 46.4 °F 43.5 °F 44.6 °F 93% 29.79 in 1.8 mi SW 5.8 mph - N/A   Overcast
9:39 AM 46.4 °F 45.2 °F 44.6 °F 93% 29.79 in 3.0 mi South 3.5 mph - N/A   Overcast
9:51 AM 46.9 °F - 45.0 °F 93% 29.81 in 9.0 mi Calm Calm - N/A   Overcast
10:40 AM 50.0 °F - 46.4 °F 87% 29.77 in 10.0 mi Calm Calm - N/A   Partly Cloudy
10:51 AM 51.1 °F - 46.0 °F 83% 29.78 in 10.0 mi Calm Calm - N/A   Partly Cloudy
11:51 AM 60.1 °F - 39.0 °F 46% 29.75 in 10.0 mi South 9.2 mph - N/A   Partly Cloudy
12:51 PM 62.1 °F - 32.0 °F 32% 29.73 in 10.0 mi South 11.5 mph - N/A   Partly Cloudy
1:51 PM 64.0 °F - 32.0 °F 30% 29.69 in 10.0 mi Variable 4.6 mph - N/A   Clear
2:51 PM 64.9 °F - 28.9 °F 26% 29.66 in 10.0 mi South 8.1 mph - N/A   Clear
3:51 PM 66.0 °F - 33.1 °F 29% 29.64 in 10.0 mi South 8.1 mph - N/A   Scattered Clouds
4:51 PM 64.0 °F - 32.0 °F 30% 29.65 in 10.0 mi SSW 10.4 mph - N/A   Clear
5:51 PM 62.1 °F - 32.0 °F 32% 29.65 in 10.0 mi SSW 8.1 mph - N/A   Overcast
6:51 PM 60.1 °F - 32.0 °F 35% 29.67 in 10.0 mi SSW 3.5 mph - N/A   Mostly Cloudy
7:51 PM 53.1 °F - 37.0 °F 55% 29.70 in 10.0 mi Calm Calm - N/A   Mostly Cloudy
8:51 PM 52.0 °F - 42.1 °F 69% 29.73 in 10.0 mi Calm Calm - N/A   Overcast
9:51 PM 55.0 °F - 35.1 °F 47% 29.77 in 10.0 mi WNW 8.1 mph - N/A   Overcast
10:51 PM 53.1 °F - 36.0 °F 52% 29.79 in 10.0 mi West 5.8 mph - N/A   Overcast
11:51 PM 51.1 °F - 37.9 °F 61% 29.80 in 10.0 mi WSW 8.1 mph - N/A   Overcast